Flight Track Log - Related Links

Times and Time Zones

All times are in EDT time to prevent confusion due to time zone crossing. See the EJM916 flight status page for this flight to view local times or setup timezone preferences in your user account.

Time Position Orientation Groundspeed Altitude Reporting Facility
EDT Latitude Longitude Course Direction KTS MPH feet Rate Location/Type
Sun 10:51:00 AM 40.1041 -86.1064 143° Southeast  Level Estimated
Sun 10:52:00 AM 40.0455 -86.0508 144° Southeast  Level Estimated
Sun 10:53:00 AM 39.9868 -85.9954 144° Southeast  Level Estimated
Sun 10:54:00 AM 39.9281 -85.9400 144° Southeast  Level Estimated
Sun 10:55:00 AM 39.8693 -85.8848 144° Southeast  Level Estimated
Sun 10:56:00 AM 39.8105 -85.8296 144° Southeast  Level Estimated
Sun 10:57:00 AM 39.7517 -85.7746 144° Southeast  Level Estimated
Sun 10:58:00 AM 39.6929 -85.7196 144° Southeast  Level Estimated
Sun 10:59:00 AM 39.6340 -85.6647 144° Southeast  Level Estimated
Sun 11:00:00 AM 39.5751 -85.6099 144° Southeast  Level Estimated
Sun 11:01:00 AM 39.5162 -85.5552 144° Southeast  Level Estimated
Sun 11:02:00 AM 39.4573 -85.5006 144° Southeast  Level Estimated
Sun 11:03:00 AM 39.3983 -85.4461 144° Southeast  Level Estimated
Sun 11:04:00 AM 39.3394 -85.3917 144° Southeast  Level Estimated
Sun 11:05:00 AM 39.2804 -85.3373 145° Southeast  Level Estimated
Sun 11:06:00 AM 39.2213 -85.2831 145° Southeast  Level Estimated
Sun 11:07:00 AM 39.1623 -85.2290 145° Southeast  Level Estimated
Sun 11:08:00 AM 39.1032 -85.1749 145° Southeast  Level Estimated
Sun 11:09:00 AM 39.0441 -85.1210 145° Southeast  Level Estimated
Sun 11:10:00 AM 38.9850 -85.0671 145° Southeast  Level Estimated
Sun 11:11:00 AM 38.9258 -85.0133 145° Southeast  Level Estimated
Sun 11:12:00 AM 38.8666 -84.9596 145° Southeast  Level Estimated
Sun 11:13:00 AM 38.8074 -84.9060 145° Southeast  Level Estimated
Sun 11:14:00 AM 38.7482 -84.8525 145° Southeast  Level Estimated
Sun 11:15:00 AM 38.6889 -84.7991 145° Southeast  Level Estimated
Sun 11:16:00 AM 38.6296 -84.7457 145° Southeast  Level Estimated
Sun 11:17:00 AM 38.5703 -84.6925 145° Southeast  Level Estimated
Sun 11:18:00 AM 38.5110 -84.6393 145° Southeast  Level Estimated
Sun 11:19:00 AM 38.4516 -84.5863 145° Southeast  Level Estimated
Sun 11:20:00 AM 38.3923 -84.5333 145° Southeast  Level Estimated
Sun 11:21:00 AM 38.3329 -84.4804 145° Southeast  Level Estimated
Sun 11:22:00 AM 38.2807 -84.4340 145° Southeast  Level Estimated
Sun 11:23:00 AM 38.2286 -84.3878 145° Southeast  Level Estimated
Sun 11:24:00 AM 38.1764 -84.3416 145° Southeast  Level Estimated
Sun 11:25:00 AM 38.1243 -84.2955 145° Southeast  Level Estimated
Sun 11:26:00 AM 38.0721 -84.2494 145° Southeast  Level Estimated
Sun 11:27:00 AM 38.0199 -84.2034 145° Southeast  Level Estimated
Sun 11:28:00 AM 37.9677 -84.1575 145° Southeast  Level Estimated
Sun 11:29:00 AM 37.9154 -84.1116 145° Southeast  Level Estimated
Sun 11:30:00 AM 37.8632 -84.0658 145° Southeast  Level Estimated
Sun 11:31:00 AM 37.8109 -84.0201 145° Southeast  Level Estimated
Sun 11:32:00 AM 37.7586 -83.9744 145° Southeast  Level Estimated
Sun 11:33:00 AM 37.7062 -83.9288 145° Southeast  Level Estimated
Sun 11:34:00 AM 37.6539 -83.8833 145° Southeast  Level Estimated
Sun 11:35:00 AM 37.6016 -83.8378 145° Southeast  Level Estimated
Sun 11:36:00 AM 37.5492 -83.7924 145° Southeast  Level Estimated
Sun 11:37:00 AM 37.4968 -83.7470 146° Southeast  Level Estimated
Sun 11:38:00 AM 37.4444 -83.7018 146° Southeast  Level Estimated
Sun 11:39:00 AM 37.3920 -83.6565 146° Southeast  Level Estimated
Sun 11:40:00 AM 37.3396 -83.6114 146° Southeast  Level Estimated
Sun 11:41:00 AM 37.2871 -83.5663 146° Southeast  Level Estimated
Sun 11:42:00 AM 37.2346 -83.5212 146° Southeast  Level Estimated
Sun 11:43:00 AM 37.1821 -83.4763 146° Southeast  Level Estimated
Sun 11:44:00 AM 37.1296 -83.4314 146° Southeast  Level Estimated
Sun 11:45:00 AM 37.0771 -83.3865 146° Southeast  Level Estimated
Sun 11:46:00 AM 37.0246 -83.3418 146° Southeast  Level Estimated
Sun 11:47:00 AM 36.9720 -83.2970 146° Southeast  Level Estimated
Sun 11:48:00 AM 36.9194 -83.2524 146° Southeast  Level Estimated
Sun 11:49:00 AM 36.8669 -83.2078 146° Southeast  Level Estimated
Sun 11:50:00 AM 36.8143 -83.1632 146° Southeast  Level Estimated
Sun 11:51:00 AM 36.7616 -83.1188 146° Southeast  Level Estimated
Sun 11:52:00 AM 36.7090 -83.0743 146° Southeast  Level Estimated
Sun 11:53:00 AM 36.6563 -83.0300 146° Southeast  Level Estimated
Sun 11:54:00 AM 36.6037 -82.9857 146° Southeast  Level Estimated
Sun 11:55:00 AM 36.5510 -82.9415 146° Southeast  Level Estimated
Sun 11:56:00 AM 36.4983 -82.8973 146° Southeast  Level Estimated
Sun 11:57:00 AM 36.4455 -82.8532 146° Southeast  Level Estimated
Sun 11:58:00 AM 36.3928 -82.8091 146° Southeast  Level Estimated
Sun 11:59:00 AM 36.3401 -82.7652 146° Southeast  Level Estimated
Sun 12:00:00 PM 36.2873 -82.7212 146° Southeast  Level Estimated
Sun 12:01:00 PM 36.2345 -82.6774 146° Southeast  Level Estimated
Sun 12:02:00 PM 36.1817 -82.6335 146° Southeast  Level Estimated
Sun 12:03:00 PM 36.1289 -82.5898 146° Southeast  Level Estimated
Sun 12:04:00 PM 36.0760 -82.5461 146° Southeast  Level Estimated
Sun 12:05:00 PM 36.0232 -82.5024 146° Southeast  Level Estimated
Sun 12:06:00 PM 35.9703 -82.4589 146° Southeast  Level Estimated
Sun 12:07:00 PM 35.9175 -82.4153 146° Southeast  Level Estimated
Sun 12:08:00 PM 35.8646 -82.3719 146° Southeast  Level Estimated
Sun 12:09:00 PM 35.8116 -82.3285 146° Southeast  Level Estimated
Sun 12:10:00 PM 35.7587 -82.2851 146° Southeast  Level Estimated
Sun 12:11:00 PM 35.7058 -82.2418 146° Southeast  Level Estimated
Sun 12:12:00 PM 35.6528 -82.1986 146° Southeast  Level Estimated
Sun 12:13:00 PM 35.5998 -82.1554 146° Southeast  Level Estimated
Sun 12:14:00 PM 35.5469 -82.1123 146° Southeast  Level Estimated
Sun 12:15:00 PM 35.4939 -82.0693 147° Southeast  Level Estimated
Sun 12:16:00 PM 35.4408 -82.0263 147° Southeast  Level Estimated
Sun 12:17:00 PM 35.3878 -81.9833 147° Southeast  Level Estimated
Sun 12:18:00 PM 35.3348 -81.9404 147° Southeast  Level Estimated
Sun 12:19:00 PM 35.2817 -81.8976 147° Southeast  Level Estimated
Sun 12:20:00 PM 35.2286 -81.8548 147° Southeast  Level Estimated
Sun 12:21:00 PM 35.1755 -81.8121 147° Southeast  Level Estimated
Sun 12:22:00 PM 35.1224 -81.7694 147° Southeast  Level Estimated
Sun 12:23:00 PM 35.0693 -81.7268 147° Southeast  Level Estimated
Sun 12:24:00 PM 35.0161 -81.6842 147° Southeast  Level Estimated
Sun 12:25:00 PM 34.9630 -81.6417 147° Southeast  Level Estimated
Sun 12:26:00 PM 34.9098 -81.5993 147° Southeast  Level Estimated
Sun 12:27:00 PM 34.8566 -81.5569 147° Southeast  Level Estimated
Sun 12:28:00 PM 34.8034 -81.5146 147° Southeast  Level Estimated
Sun 12:29:00 PM 34.7502 -81.4723 147° Southeast  Level Estimated
Sun 12:30:00 PM 34.6970 -81.4301 147° Southeast  Level Estimated
Sun 12:31:00 PM 34.6438 -81.3879 147° Southeast  Level Estimated
Sun 12:32:00 PM 34.5905 -81.3458 147° Southeast  Level Estimated
Sun 12:33:00 PM 34.5372 -81.3037 147° Southeast  Level Estimated
Sun 12:34:00 PM 34.4839 -81.2617 147° Southeast  Level Estimated
Sun 12:35:00 PM 34.4306 -81.2197 147° Southeast  Level Estimated
Sun 12:36:00 PM 34.3773 -81.1778 147° Southeast  Level Estimated
Sun 12:37:00 PM 34.3240 -81.1360 147° Southeast  Level Estimated
Sun 12:38:00 PM 34.2707 -81.0942 147° Southeast  Level Estimated
Sun 12:39:00 PM 34.2173 -81.0525 147° Southeast  Level Estimated
Sun 12:40:00 PM 34.1639 -81.0108 147° Southeast  Level Estimated
Sun 12:41:00 PM 34.1105 -80.9691 147° Southeast  Level Estimated
Sun 12:42:00 PM 34.0571 -80.9275 147° Southeast  Level Estimated
Sun 12:43:00 PM 34.0037 -80.8860 147° Southeast  Level Estimated
Sun 12:44:00 PM 33.9503 -80.8445 147° Southeast  Level Estimated
Sun 12:45:00 PM 33.8969 -80.8031 147° Southeast  Level Estimated
Sun 12:46:00 PM 33.8434 -80.7617 147° Southeast  Level Estimated
Sun 12:47:00 PM 33.7899 -80.7204 147° Southeast  Level Estimated
Sun 12:48:00 PM 33.7365 -80.6791 147° Southeast  Level Estimated
Sun 12:49:00 PM 33.6829 -80.6379 147° Southeast  Level Estimated
Sun 12:50:00 PM 33.6294 -80.5967 147° Southeast  Level Estimated
Sun 12:51:00 PM 33.5759 -80.5556 147° Southeast  Level Estimated
Sun 12:52:00 PM 33.5224 -80.5145 147° Southeast  Level Estimated
Sun 12:53:00 PM 33.4688 -80.4735 147° Southeast  Level Estimated
Sun 12:54:00 PM 33.4153 -80.4326 147° Southeast  Level Estimated
Sun 12:55:00 PM 33.3617 -80.3916 147° Southeast  Level Estimated
Sun 12:56:00 PM 33.3081 -80.3508 147° Southeast  Level Estimated
Sun 12:57:00 PM 33.2545 -80.3100 148° Southeast  Level Estimated
Sun 12:58:00 PM 33.2009 -80.2692 148° Southeast  Level Estimated
Sun 12:59:00 PM 33.1472 -80.2285 148° Southeast  Level Estimated
Sun 01:00:00 PM 33.0936 -80.1878 148° Southeast  Level Estimated
Sun 01:01:00 PM 33.0399 -80.1472 148° Southeast  Level Estimated
Sun 01:02:00 PM 32.9863 -80.1066 148° Southeast  Level Estimated
Sun 01:03:00 PM 32.9326 -80.0661 148° Southeast  Level Estimated
Sun 01:04:00 PM 32.8986 -80.0405 148° Southeast  Level Estimated
Sun 01:05:00 PM 32.8986 -80.0405 121° Southeast  Level Estimated
Sun 01:06:00 PM 32.8986 -80.0405 121° Southeast  Level Estimated
Sun 01:07:00 PM 32.8986 -80.0405 121° Southeast  Level Estimated
Sun 01:08:00 PM 32.8986 -80.0405 121° Southeast  Level Estimated
Sun 01:09:00 PM 32.8986 -80.0405 121° Southeast  Level Estimated
Sun 01:10:00 PM 32.8986 -80.0405 121° Southeast  Level Estimated
Sun 01:11:00 PM 32.8986 -80.0405 121° Southeast  Level Estimated
Sun 01:12:00 PM 32.8986 -80.0405 121° Southeast  Level Estimated
Sun 01:13:00 PM 32.8986 -80.0405 121° Southeast  Level Estimated
Sun 01:14:00 PM 32.8986 -80.0405 121° Southeast  Level Estimated
Sun 01:15:00 PM 32.8986 -80.0405 121° Southeast  Level Estimated
Sun 01:16:00 PM 32.8986 -80.0405 121° Southeast  Level Estimated
Sun 01:17:00 PM 32.8986 -80.0405 121° Southeast  Level Estimated
Sun 01:18:00 PM 32.8986 -80.0405 121° Southeast  Level Estimated
Sun 01:19:00 PM 32.8986 -80.0405 121° Southeast  Level Estimated
Sun 01:20:00 PM 32.8986 -80.0405 121° Southeast  Level Estimated
Sun 01:21:00 PM 32.8986 -80.0405 121° Southeast  Level Estimated
Sun 01:22:00 PM 32.8986 -80.0405 121° Southeast  Level Estimated
Sun 01:23:00 PM 32.8986 -80.0405 121° Southeast  Level Estimated

Login

Don't have an account? Register now (free) for customized features, flight alerts, and more!